2019-032G (44316 NORAD) Tracking and Keplerian Element Data

This shows tracking and keplerian element data for the satellite.

Feedback or suggestion? Click here.




ElementValue
Catalog44316
Name2019-032G
Epoch Orbit449
Epoch Day186.26016192
Epoch Year2019
RAAN143.1593
Inclination44.9847
Eccentricity0.0015669
Argument of Perigee116.704
Mean Anonmoly243.5444
Mean Motion14.98856563
Decay Rate-7.8E-07
L11 44316U 19032G 19186.26016192 -.00000078 00000-0 12199-4 0 9997
L22 44316 44.9847 143.1593 0015669 116.7040 243.5444 14.98856563 4496

Live tracking and technical data element details for 2019-032G (NORAD 44316). 2019-032G can be tracked NOW for your location showing map with azimuth and elevation plus other details from your city location.

Track the satellite on the map from your city or location and see movement details for azimuth, elevation, latitude, longitude, range, height, and movement on the map or in text.







IsCatalogInMostPopularTable: catalog: 44316, numindb: 6
Update: records affected: 1



GetName: 44316 2019-032G

Hit Count: updated at: Tue, 16 Jul 2019 20:18:36 GMT